sat.trackr.live / text

‹ back to catalog

STARLINK-2145

NORAD 48555 · 2021-041C

PAYLOAD ACTIVE UNKNOWN

§ Identity

Operator
Country
US
Launch date
2021-05-15
Launch site
AFETR
Launch vehicle
Mass (kg)
RCS (m²)

Purposes: comms

External: N2YO · Heavens-Above · Gunter

§ Orbital elements

Epoch: 2026-09-19T17:56:25.008288Z

Period
94.01 min
Inclination
53.1576°
Eccentricity
0.0001548
Mean motion
15.31699917 rev/d
Perigee alt
469.7 km
Apogee alt
471.8 km
Semi-major
6,848.9 km
B*
-4.0100e-5
RAAN
325.8318°
Arg perigee
57.4834°
Mean anomaly
302.6317°
Rev number
29,468

§ Raw data

STARLINK-21451 48555U 21041C   26262.74751167 -.00001609  00000+0 -40100-4 0  99972 48555  53.1576 325.8318 0001548  57.4834 302.6317 15.31699917294687

JSON: /api/v1/satellites/48555 · /tle

For live sub-satellite position, see the globe view (requires WebGL).

§ Visibility from observer

Set your observer location to see the next 7 days of passes ≥ 10°. The values pass through the URL so the page stays shareable.

No JS? Fill the form by hand. The geolocation button needs JavaScript.